Location: Buckeye Ditch
(40.9104°N, 122.9517°W)
Time: 15:29:14
(UTC+00:00)

A-11 Canister half - Pass Details

Date: 24 May 2025
Orbit: 1515 x 1684 km, 47.2° (Epoch: 14 June)

Event Time Altitude Azimuth Distance (km) Brightness Sun altitude
Rises 04:14:18 0° 190° (S) 4,842 11.3 -7.8°
Reaches altitude 10° 04:18:15 10° 177° (S) 3,831 10.7 -8.4°
Maximum altitude 04:25:28 24° 128° (SE) 2,831 9.8 -9.5°
Drops below altitude 10° 04:32:30 10° 80° (E) 3,743 10.7 -10.5°
Sets 04:36:16 0° 67° (ENE) 4,706 11.3 -11.0°
